Terminal Aerodrome Forecast
Issued by NWS Wakefield, VA

Home | Current Version | Previous Version | Text Only | Print | Product List | Glossary On
Versions: 1 2 3 4 5 6 7 8 9 10 11 12 13 14 15 16 17 18 19 20 21
232
FTUS41 KAKQ 271139 CCA
TAFSBY
TAF COR
KSBY 271139Z 2712/2812 15005KT P6SM SCT050 BKN120
     FM271400 17005KT P6SM BKN040
     FM271800 20011KT P6SM BKN050
     FM280100 18007KT P6SM BKN120
     FM280900 20006KT P6SM BKN020=

USA.gov is the U.S. government's official web portal to all federal, state and local government web resources and services.